Find Starlink 4132

NORAD ID: 53252 Int'l Des: 2022-086 Owner: SPXS Country: US Constellation: starlink operational
LEOCIRCULAR

リアルタイム位置

3D地球を読み込み中...

Starlink 4132について

説明を読み込み中...

次回通過

Passes for default location (London). Set your location on the main map for personalized predictions.

高度履歴

Loading altitude history...

軌道要素

1 53252U 22086L 26105.93286507 -.00000757 00000-0 -29486-4 0 9993
2 53252 53.2185 26.8802 0001424 90.3485 269.7670 15.08832559206707
Epoch: Apr 15, 2026 • Age: 11 hours

現在のステータス

高度 550.3 km
速度 7.59 km/s
衛星直下点 -31.83°S, 105.66°W
打ち上げ日 Jul 24, 2022
運用期間 3.7 years
タイプ internet

技術仕様

分類 Payload
質量 297.00 kg
乾燥質量 275.00 kg
総質量 297.00 kg
長さ 0.20 m
直径 2.80 m
スパン 9.00 m
形状 Box + pan
製造者 SPXS
バスタイプ Starlink
フェーズステータス In Orbit
所有者/国 SPXS/US

Most Searched